Regional Weather Roundup
Issued by NWS Upton, NY

Current Version | Previous Version | Text Only | Print | Product List | Glossary On
Versions: 1 2 3 4 5 6 7 8 9 10 11 12 13 14 15 16 17 18 19 20 21 22 23 24 25 26 27 28 29 30 31 32 33 34 35 36 37 38 39 40 41 42 43 44 45 46 47 48 49 50
000 ASUS41 KOKX 020718 RWROKX REGIONAL WEATHER ROUNDUP NATIONAL WEATHER SERVICE NEW YORK NY 300 AM EDT TUE JUN 02 2015 NOTE: "FAIR" INDICATES FEW OR NO CLOUDS BELOW 12,000 FEET WITH NO SIGNIFICANT WEATHER AND/OR OBSTRUCTIONS TO VISIBILITY. NYZ071-072-176-178-NJZ106-104-020800- NEW YORK CITY METRO AREA CITY SKY/WX TMP DP RH WIND PRES REMARKS CENTRAL PARK LGT RAIN 50 47 89 VRB7 30.14F LAGUARDIA APRT LGT RAIN 51 48 89 NE10G22 30.11S KENNEDY INTL LGT RAIN 52 48 86 NE13 30.12F NEWARK/LIBERTY LGT RAIN 50 48 93 NE12G18 30.13R BRNX BOT. GARD N/A 48 46 93 E10 30.14R TETERBORO RAIN 50 46 86 N6 30.11F $$ NYZ177-179-078>081-020800- LONG ISLAND NEW YORK CITY SKY/WX TMP DP RH WIND PRES REMARKS FARMINGDALE LGT RAIN 50 48 93 NE12 30.11F ISLIP LGT RAIN 50 47 89 NE14 30.09F SHIRLEY LGT RAIN 50 48 93 VRB6 30.12F WESTHAMPTON LGT RAIN 51 49 92 NE12 30.12F MONTAUK POINT N/A 51 48 89 NE8G17 30.14S $$ NYZ052-065-067-020800- HUDSON VALLEY CITY SKY/WX TMP DP RH WIND PRES REMARKS WHITE PLAINS DRZL/FOG 48 46 93 NE5 30.11F VSB 1 NEWBURGH SHOWER 46 46 100 E12 30.15F FOG MONTGOMERY LGT RAIN 48 46 93 NE7 30.14F POUGHKEEPSIE LGT RAIN 49 46 90 N6 30.14F ALBANY LGT RAIN 49 46 90 SW6 30.17S $$ NJZ001-105-106-008-010-013-015-019>022-104-020800- NEW JERSEY CITY SKY/WX TMP DP RH WIND PRES REMARKS NEWARK/LIBERTY LGT RAIN 50 48 93 NE12G18 30.13R TETERBORO RAIN 50 46 86 N6 30.11F CALDWELL LGT RAIN 49 46 90 VRB6 30.13S MORRISTOWN DRIZZLE 52 48 87 NE5 30.13S SOMERVILLE CLOUDY 51 48 89 NE8 30.10S SUSSEX LGT RAIN 49 45 86 NE7 30.14S ANDOVER N/A 49 48 97 VRB6 30.12F TRENTON LGT RAIN 52 50 93 NE10 30.09S MILLVILLE RAIN 60 59 96 NE7 30.03F ATLANTIC CITY LGT RAIN 59 57 93 NE6 30.04F WRIGHTSTOWN LGT RAIN 53 52 99 NE13 30.06F TOMS RIVER CLOUDY N/A N/A N/A NE10 30.08F BELMAR CLOUDY 52 45 76 NE13 30.10R $$ PAZ047>061-062-071-020800- EASTERN PENNSYLVANIA CITY SKY/WX TMP DP RH WIND PRES REMARKS PHILADELPHIA CLOUDY 56 53 90 NE15 30.07F ALLENTOWN LGT RAIN 52 50 93 NE9 30.11R SCRANTON LGT RAIN 52 49 89 VRB5 30.11S FOG $$ CTZ002-004>006-009-010-012-RIZ004-006-007-MAZ004-011-015-020800- SOUTHERN NEW ENGLAND IN CT CITY SKY/WX TMP DP RH WIND PRES REMARKS BRADLEY INTL RAIN 48 45 89 N10 30.16F FOG HARTFORD RAIN 48 46 93 N8 30.16F DANBURY LGT RAIN 47 43 86 NE7 30.14F FOG WTRBRY/OXFORD CLOUDY 46 39 76 NE7 30.14F BRIDGEPORT LGT RAIN 50 47 89 NE8 30.13F MERIDEN LGT RAIN 49 45 86 N8 30.15F NEW HAVEN LGT RAIN 49 47 93 NE8 30.13F CHESTER LGT RAIN 46 46 100 NE7 30.13F GROTON LGT RAIN 49 46 90 NE13 30.12F WILLIMANTIC LGT RAIN 48 45 89 NE9 30.16F IN RI CITY SKY/WX TMP DP RH WIND PRES REMARKS PROVIDENCE LGT RAIN 48 46 93 N13 30.16F FOG BLOCK ISLAND CLOUDY 50 46 87 NE13G20 30.13F WESTERLY LGT RAIN 48 46 93 NE7 30.13F IN MA CITY SKY/WX TMP DP RH WIND PRES REMARKS BOSTON CLOUDY 46 45 96 NE12 30.20F FOG WORCESTER HVY RAIN 45 43 93 NE12G20 30.16F FOG WESTFIELD RAIN 47 45 93 N9 30.18F FOG PROVINCETOWN CLOUDY 48 45 87 NE12G20 30.14F NANTUCKET LGT RAIN 53 51 93 N9 30.10F FOG $$ ANZ330-335-338-340-345-350-353-355-020800- COASTAL MARINE OBSERVATIONS STATION/POSITION TIME SKY/WX TEMP WIND PRES VSBY WAVE AIR SEA DIR/SP/G HT/PER (UTC) (F) (DEG/KT/KT) (MB) (MI) (FT/S) NY HARB ENTRANCE 0650 53 59 50/ 17/ 19 1018.5 5/ 6 4S FIRE IS 0603 54 N/A 5/ 7 20S FIRE ISLAND 0650 53 58 50/ 19/ 23 1018.2 6/ 7 GREAT SOUTH BAY 0600 52 67 40/ 10/ 14 N/A 23SW MTP 0650 52 57 50/ 17/ 21 1019.0 6/ 6 HUDSON CANYON NOT AVBL KINGS POINT 0600 50 57 N/A CENTRAL LI SOUND 0630 50 55 50/ 16/ 17 N/A EASTERN LI SOUND 0600 50 40/ 12/ 16 N/A ROBBINS REEF 0600 51 N/A $$ >>>>>>>>>>>>>>>>>>>>>>>>>>>> KEY <<<<<<<<<<<<<<<<<<<<<<<<<<< > < > SKY/WX - SKY CONDITION/PRESENT WEATHER < > TMP - TEMPERATURE IN FAHRENHEIT < > DP - DEWPOINT IN FAHRENHEIT < > RH - RELATIVE HUMIDITY IN PERCENT < > WIND - DIRECTION AND SPEED IN MPH < > PRES - MEAN SEA LEVEL PRESSURE IN INCHES OF HG < > WCI - WIND CHILL INDEX < > VSB - VISIBILITY IN MILES < > HX - HEAT INDEX < > TC - TEMPERATURE IN CELSIUS < > VRB - VARIABLE WIND DIRECTION < > < >>>>>>>>>>>>>>>>>>>>>>>>>>>> KEY <<<<<<<<<<<<<<<<<<<<<<<<<<<

USA.gov is the U.S. government's official web portal to all federal, state and local government web resources and services.